Wind_Speed
8 7 7 7 6 6 7 7 7 7 7 8 9 9 9 9 9 9 9 9 9 9 9 9 9 9 9 10 10 10 10 10 10 11 11 11 11 12 12 12 13 13 14
8 7 7 7 7 7 8 8 8 8 8 8 8 8 8 9 9 9 10 10 10 9 10 10 10 9 10 9 9 10 10 10 10 11 12 12 11 12 13 13 13 13 14
8 8 7 7 7 7 8 9 9 9 9 8 8 8 8 9 9 10 10 10 10 10 10 10 10 10 10 9 9 9 10 10 11 11 11 12 12 12 13 13 14 15 15
8 8 8 7 7 8 8 9 9 9 8 8 8 8 8 9 10 10 10 10 10 10 10 10 10 10 9 10 10 10 10 10 10 11 12 12 13 13 13 14 14 15 15
8 8 8 7 8 8 8 8 8 8 8 8 9 9 9 9 10 10 10 10 10 9 9 10 11 11 11 11 11 12 11 11 11 11 12 12 13 13 14 14 15 15 15
8 8 7 7 7 8 8 8 7 7 8 9 9 10 10 10 10 10 10 10 11 10 10 11 12 12 12 12 12 12 12 12 13 13 13 13 14 14 14 14 15 16 16
9 8 7 7 7 7 7 7 7 7 8 9 9 9 10 10 10 10 10 11 11 11 11 12 13 13 13 13 13 13 13 13 14 14 14 14 14 15 15 16 16 17 18
9 8 8 8 8 7 7 7 7 8 8 8 9 9 9 10 10 10 11 11 11 11 12 12 13 13 14 14 14 14 14 15 14 14 15 16 16 16 16 17 17 19 19
9 9 9 9 9 8 7 8 7 8 8 8 9 9 9 10 10 11 11 11 12 12 12 13 14 14 15 15 15 15 15 15 15 15 15 15 16 16 17 17 18 19 20
10 10 10 9 9 9 9 9 8 8 8 8 9 9 10 10 11 11 12 12 12 12 12 13 14 15 15 15 15 15 16 16 16 16 16 16 16 17 17 18 18 18 18
11 11 11 10 10 10 10 10 9 9 9 9 10 10 10 11 11 11 12 11 12 12 13 14 14 15 14 15 15 16 16 16 16 17 17 18 18 19 18 18 18 19 19
11 11 11 11 11 11 11 11 10 11 11 10 11 11 11 11 12 12 12 12 12 13 13 14 14 14 15 15 16 16 16 17 17 18 19 20 20 20 20 19 19 20 20
12 12 12 12 12 13 12 12 11 11 12 11 12 11 11 12 12 12 12 13 13 13 13 14 14 15 15 16 16 16 17 17 18 19 20 21 21 21 20 20 20 20 21
13 13 12 12 12 13 13 12 12 13 13 12 12 13 12 13 13 13 12 13 13 13 13 14 15 15 15 16 17 17 17 18 19 20 21 21 21 20 20 21 20 20 20
13 12 12 12 13 13 11 11 12 13 13 13 12 13 13 13 13 13 13 13 13 13 13 14 15 15 14 15 16 17 18 18 18 20 20 19 19 19 19 19 20 20 20
13 13 12 13 13 12 11 11 12 13 14 14 14 14 14 14 14 14 14 15 15 15 15 15 15 15 15 16 16 17 18 18 18 18 18 18 18 18 19 19 19 20 20
13 13 13 12 12 12 12 11 11 12 13 13 14 14 14 14 15 15 15 15 15 15 15 15 15 16 16 16 17 17 18 18 18 18 18 18 18 19 19 19 19 19 20
13 13 12 12 12 12 12 12 12 12 13 14 14 14 14 14 15 15 15 15 16 16 16 16 16 17 17 17 17 18 18 18 18 18 18 19 19 18 19 18 19 19 20
14 13 14 13 13 13 13 13 13 14 14 15 15 15 15 16 16 15 16 17 17 16 17 17 17 18 18 18 18 18 19 18 18 18 18 19 18 18 18 19 19 19 20
14 15 15 14 14 14 14 14 14 15 14 15 15 15 15 16 16 16 16 17 17 17 17 18 18 18 18 18 19 19 19 19 19 19 19 19 19 19 19 19 19 19 20
14 14 14 14 14 15 15 15 15 15 15 15 15 15 15 16 16 16 16 17 17 18 18 18 18 19 19 20 19 19 20 20 19 19 20 20 19 19 19 19 19 20 20
14 13 13 13 14 14 15 15 16 15 15 15 16 16 16 16 16 17 17 17 17 17 18 18 19 19 20 20 20 19 20 20 20 20 19 19 20 20 20 20 20 20 21
13 13 13 14 14 14 14 14 15 15 15 15 16 16 16 16 17 17 18 17 17 17 18 18 19 19 19 20 20 20 20 20 20 20 20 20 20 20 20 20 20 20 21
14 13 14 14 14 14 15 16 15 16 16 16 16 16 16 16 17 18 18 18 18 18 19 19 20 20 20 21 21 20 20 20 21 21 20 21 21 21 21 21 20 21 21
15 14 14 14 15 15 16 16 16 16 16 17 17 17 16 16 17 18 19 19 19 20 20 20 20 20 21 21 21 21 21 21 21 21 21 21 21 20 20 20 20 21 21
15 15 16 15 16 17 17 18 18 17 17 18 18 17 16 17 18 18 19 19 20 20 20 21 21 21 21 21 21 21 22 21 21 22 22 22 22 21 21 21 21 21 21
Wind_Direction
321 314 305 298 288 281 283 280 273 269 268 261 259 255 250 248 247 251 253 254 255 256 257 259 264 263 259 261 267 268 262 264 264 261 261 256 254 246 243 244 242 245 246
328 323 305 295 289 281 278 272 266 270 270 265 259 253 251 249 247 251 253 255 256 257 259 259 261 261 259 262 268 264 263 267 267 266 266 262 257 248 246 246 245 245 246
321 319 309 297 289 285 281 269 264 268 265 261 258 254 249 251 250 250 254 256 256 256 258 257 259 261 260 264 267 265 265 265 266 271 273 268 262 257 250 250 250 249 247
319 316 307 299 290 284 277 271 266 267 260 257 256 254 251 253 252 253 255 258 256 256 256 258 258 259 263 266 263 266 272 271 269 273 273 270 266 261 256 255 254 252 248
315 312 306 297 292 287 280 273 270 265 259 255 253 251 254 255 258 257 255 258 257 256 257 259 259 259 266 265 265 268 273 271 273 275 273 270 265 264 262 261 257 253 251
313 310 308 301 295 289 282 275 272 269 259 256 253 252 256 260 261 257 255 257 257 257 258 259 259 262 265 265 265 267 270 270 272 272 271 270 266 263 264 262 259 257 254
307 303 301 301 299 292 283 276 274 269 261 258 253 256 257 259 260 258 258 259 260 258 259 261 263 265 267 266 265 267 269 273 273 272 271 270 266 263 264 264 265 261 260
300 296 293 293 295 290 282 274 272 273 269 258 259 260 259 259 260 261 260 259 258 257 259 262 266 267 265 265 266 266 269 271 272 274 275 271 266 265 267 267 266 266 265
289 286 284 286 288 284 280 276 273 275 269 262 260 261 261 261 262 261 262 261 258 256 259 262 266 268 267 267 266 266 267 269 269 271 276 274 270 270 270 267 268 267 266
280 282 281 281 281 282 275 270 270 277 270 268 265 262 261 263 264 266 266 267 265 262 264 267 269 270 270 268 266 268 267 269 270 271 274 275 275 275 274 271 268 267 265
277 278 279 277 278 277 270 267 267 268 265 269 268 267 264 264 265 266 267 270 268 266 268 272 272 271 272 269 269 270 270 271 271 271 274 276 275 276 276 271 267 266 265
276 276 279 279 276 275 270 267 264 264 263 266 269 267 266 267 268 270 269 270 273 272 271 274 275 275 271 269 272 271 272 275 275 275 275 276 276 275 274 271 269 267 265
279 277 279 278 275 272 270 267 265 262 263 266 266 265 268 270 272 274 274 274 274 275 274 276 275 276 273 270 270 271 273 276 277 276 277 278 278 275 272 269 269 269 267
283 279 279 277 274 272 268 266 264 262 265 268 266 266 270 272 275 276 276 274 273 274 275 276 276 278 274 271 270 271 274 277 277 277 279 279 278 277 273 270 266 266 266
280 279 279 278 278 276 267 263 265 264 265 266 267 268 270 274 277 276 277 275 274 274 278 278 277 279 273 274 274 275 277 277 278 280 280 279 279 278 274 270 268 267 268
277 279 276 278 280 279 276 270 269 267 266 266 267 268 272 274 274 274 275 274 272 272 274 275 276 275 273 276 278 278 277 278 280 282 281 279 278 278 276 271 272 270 269
275 276 275 277 279 277 278 276 276 272 273 273 273 274 274 273 272 271 272 273 273 271 273 274 277 278 278 281 281 282 282 282 281 282 280 278 278 278 276 273 273 272 271
273 274 274 275 276 276 276 279 281 279 276 276 277 278 277 276 276 272 271 273 275 273 271 273 276 279 281 282 283 284 284 283 282 281 279 279 279 277 276 275 274 274 274
271 274 275 272 275 275 276 278 279 280 278 278 280 282 279 278 277 273 273 274 276 273 272 274 278 280 282 282 283 284 284 283 283 281 281 281 279 279 279 277 276 275 275
274 278 274 275 275 275 276 278 279 280 281 281 281 281 281 278 276 275 275 274 274 275 276 278 281 281 282 283 284 283 284 284 283 281 281 281 279 278 278 278 277 276 275
277 278 275 276 275 275 278 281 280 282 281 282 279 278 279 279 276 276 277 277 275 277 279 280 282 282 282 283 283 283 284 285 285 282 281 280 280 278 277 278 278 278 278
275 277 275 274 277 280 281 283 284 283 283 282 282 280 278 277 277 276 278 278 278 280 282 282 283 283 282 282 282 283 284 285 285 286 284 280 280 281 281 282 282 281 281
273 274 275 274 276 281 283 284 287 287 287 286 285 284 280 277 280 280 282 283 282 283 284 284 284 283 282 281 282 284 284 285 286 286 287 285 281 281 283 283 282 281 281
272 273 275 276 276 279 284 287 285 289 291 289 287 285 282 280 280 281 281 282 283 285 286 285 285 283 282 281 281 283 284 285 287 286 286 285 283 281 282 281 280 280 279
270 272 274 276 277 279 282 285 287 288 289 290 288 284 282 282 284 283 282 283 283 284 286 287 286 284 283 283 283 284 285 286 286 287 287 287 284 282 281 281 281 281 280
270 270 273 276 278 280 283 284 285 286 285 287 285 282 280 280 282 285 286 286 286 286 286 287 286 285 284 285 285 285 285 285 285 286 286 286 285 284 283 282 283 283 282
Height
5862 5862 5861 5861 5861 5861 5861 5862 5862 5862 5863 5863 5863 5864 5865 5866 5867 5867 5868 5868 5869 5869 5869 5869 5870 5870 5870 5870 5870 5870 5870 5870 5870 5870 5870 5870 5870 5870 5871 5872 5873 5874 5875
5861 5860 5860 5859 5859 5859 5860 5860 5860 5860 5861 5861 5861 5862 5863 5864 5865 5865 5866 5866 5867 5867 5867 5867 5867 5868 5868 5868 5868 5868 5868 5868 5868 5868 5868 5868 5867 5868 5868 5869 5870 5871 5872
5860 5859 5858 5858 5858 5857 5857 5858 5858 5858 5858 5859 5860 5860 5861 5862 5863 5863 5864 5864 5864 5864 5865 5865 5865 5865 5866 5865 5865 5865 5865 5866 5866 5866 5865 5865 5865 5865 5865 5866 5867 5868 5868
5858 5858 5857 5856 5856 5855 5855 5856 5856 5856 5856 5857 5858 5859 5859 5860 5861 5861 5861 5862 5862 5862 5862 5862 5863 5863 5863 5863 5863 5863 5863 5863 5863 5863 5863 5862 5862 5862 5862 5863 5863 5864 5865
5857 5856 5855 5854 5854 5854 5853 5853 5854 5854 5855 5855 5856 5857 5857 5858 5859 5859 5859 5859 5860 5860 5860 5860 5860 5860 5860 5861 5861 5861 5860 5860 5860 5860 5860 5859 5859 5859 5859 5859 5860 5861 5861
5855 5854 5854 5853 5852 5852 5851 5851 5852 5852 5853 5853 5854 5854 5855 5856 5856 5856 5857 5857 5857 5857 5858 5858 5858 5857 5858 5858 5858 5858 5857 5857 5857 5857 5857 5856 5856 5856 5856 5856 5856 5857 5857
5854 5853 5852 5851 5851 5850 5850 5850 5850 5850 5851 5851 5851 5852 5853 5853 5854 5854 5854 5854 5854 5854 5855 5855 5855 5855 5855 5855 5855 5854 5854 5854 5854 5854 5853 5853 5852 5852 5852 5852 5852 5852 5853
5852 5851 5850 5849 5849 5848 5848 5848 5848 5848 5848 5848 5849 5850 5851 5852 5851 5851 5851 5851 5851 5851 5851 5852 5852 5851 5851 5851 5851 5851 5851 5850 5850 5850 5849 5849 5849 5848 5848 5848 5848 5848 5848
5850 5849 5848 5847 5847 5847 5846 5846 5846 5846 5846 5847 5847 5848 5848 5848 5849 5849 5849 5848 5848 5848 5848 5848 5848 5847 5847 5847 5847 5847 5847 5847 5846 5846 5845 5844 5844 5844 5843 5843 5843 5843 5843
5847 5847 5846 5845 5845 5844 5844 5844 5844 5844 5844 5844 5844 5845 5845 5845 5845 5846 5846 5845 5845 5845 5844 5844 5844 5844 5843 5843 5843 5843 5843 5843 5842 5842 5841 5840 5839 5839 5839 5838 5838 5838 5838
5844 5844 5843 5843 5843 5842 5842 5842 5842 5842 5842 5842 5842 5842 5842 5842 5842 5842 5842 5842 5841 5841 5841 5840 5840 5840 5839 5839 5839 5839 5839 5839 5838 5838 5837 5836 5835 5834 5833 5833 5833 5833 5833
5842 5841 5841 5840 5840 5839 5839 5839 5839 5839 5839 5839 5839 5839 5839 5839 5839 5839 5838 5838 5838 5838 5837 5837 5836 5836 5835 5835 5835 5835 5835 5834 5834 5833 5832 5831 5830 5829 5829 5828 5828 5828 5828
5839 5838 5838 5838 5837 5836 5836 5836 5836 5836 5836 5836 5836 5836 5836 5836 5836 5835 5835 5835 5834 5834 5833 5833 5832 5832 5831 5831 5831 5831 5830 5830 5829 5828 5827 5826 5825 5824 5823 5823 5823 5823 5823
5836 5835 5835 5834 5834 5833 5833 5833 5833 5833 5833 5833 5833 5833 5833 5833 5832 5832 5832 5831 5831 5831 5830 5829 5829 5828 5827 5827 5827 5826 5826 5825 5824 5823 5822 5820 5819 5818 5817 5817 5817 5817 5817
5833 5832 5832 5831 5831 5830 5830 5830 5830 5830 5830 5830 5830 5830 5830 5829 5829 5829 5828 5828 5828 5828 5827 5826 5825 5824 5824 5823 5823 5822 5822 5821 5820 5818 5817 5815 5813 5812 5811 5812 5812 5812 5812
5830 5828 5828 5828 5827 5827 5827 5827 5826 5826 5826 5826 5826 5826 5826 5826 5825 5825 5825 5824 5824 5824 5824 5823 5822 5821 5820 5819 5819 5818 5817 5816 5815 5814 5812 5810 5809 5807 5807 5807 5807 5807 5807
5826 5826 5826 5825 5825 5824 5824 5824 5824 5823 5823 5823 5823 5823 5822 5822 5821 5821 5821 5820 5820 5820 5819 5819 5818 5817 5817 5816 5815 5814 5812 5811 5810 5809 5807 5806 5804 5803 5803 5802 5802 5802 5802
5823 5822 5822 5822 5822 5822 5821 5821 5820 5820 5820 5820 5819 5819 5818 5818 5817 5816 5816 5816 5816 5815 5815 5815 5814 5813 5813 5812 5810 5809 5808 5807 5805 5804 5802 5801 5800 5799 5798 5798 5798 5798 5797
5819 5819 5819 5819 5819 5818 5818 5817 5817 5817 5816 5816 5816 5815 5814 5814 5813 5812 5812 5812 5812 5811 5811 5811 5810 5809 5808 5807 5806 5805 5803 5802 5801 5799 5798 5796 5795 5794 5794 5793 5793 5793 5792
5815 5815 5815 5815 5815 5814 5814 5813 5813 5813 5813 5812 5811 5811 5810 5809 5809 5808 5808 5808 5807 5807 5806 5806 5805 5804 5803 5802 5801 5800 5799 5797 5796 5794 5793 5792 5791 5790 5789 5789 5788 5788 5787
5811 5811 5811 5811 5811 5810 5810 5810 5809 5809 5809 5808 5807 5806 5806 5805 5805 5804 5804 5803 5803 5802 5802 5801 5800 5799 5798 5798 5797 5795 5794 5793 5791 5790 5788 5787 5786 5785 5784 5784 5783 5783 5782
5807 5807 5807 5807 5807 5807 5807 5806 5805 5805 5804 5804 5803 5802 5801 5801 5800 5800 5799 5799 5798 5797 5797 5796 5796 5794 5793 5793 5792 5790 5789 5788 5787 5785 5783 5782 5781 5780 5779 5779 5778 5777 5776
5803 5803 5803 5803 5804 5803 5803 5802 5801 5801 5800 5799 5798 5797 5796 5796 5796 5796 5795 5794 5793 5793 5792 5791 5790 5789 5788 5788 5787 5785 5784 5783 5781 5780 5778 5777 5776 5775 5774 5773 5772 5771 5770
5799 5799 5800 5800 5800 5800 5799 5798 5798 5797 5796 5795 5794 5793 5792 5792 5791 5791 5790 5790 5789 5788 5787 5786 5785 5784 5783 5782 5781 5780 5778 5777 5776 5774 5773 5772 5771 5770 5769 5768 5766 5765 5764
5795 5795 5796 5796 5796 5796 5795 5794 5793 5793 5792 5790 5789 5788 5788 5787 5787 5786 5786 5785 5784 5783 5781 5780 5779 5778 5776 5775 5775 5774 5773 5772 5770 5769 5768 5767 5765 5764 5763 5762 5761 5759 5758
5791 5791 5791 5791 5791 5791 5790 5790 5789 5788 5787 5786 5785 5784 5783 5783 5782 5781 5780 5779 5778 5777 5775 5774 5773 5772 5770 5769 5768 5767 5766 5766 5764 5763 5762 5761 5760 5758 5758 5757 5755 5753 5752